COSMOS 1275 DEB, 12947

Orbit data source: Space-Track

COSMOS 1275 DEB, 12947 is space debris in LEO originally from a launch on Thu, 04 Jun 1981 UTC launched from the Plesetsk Missile And Space Complex (PKMTR). Debris objects in space refer to the collection of defunct objects orbiting the Earth. Examples of debris include non-operational satellites, rocket bodies, and fragments generated from explosions, collisions, or faulty payload assembly.

Loading next visibility...
Identifier
12947, 1981-053EB
Orbit
LEO
Country
Flag of CISCIS
Related business
Manufacturer
Unknown
Mission
Spacecraft
Bus & Motor
Unknown
Mass
Unknown
Launch date (UTC)
1981-06-04 (45 years ago)
Launch vehicle
Unknown
Launch site
Plesetsk Missile And Space Complex (PKMTR)
Object type
Payload
Rocket body
Debris
Shape & HBR
Unknown shape, 0.1 m
Radar Cross Section
Medium (>0.1 m² and <1 m²)

Expand to show TLE details & history
Last TLE update: 3 days ago

TLE from 3 days ago
0 COSMOS 1275 DEB
1 12947U 81053EB  26170.60579794  .00000433  00000-0  63469-3 0  9994
2 12947  83.0936 115.9847 0193715 165.3611   9.2537 13.45074436181450
Epoch: 2026-06-19T14:32Z
TLE epoch observation values (Epoch: 2026-06-19T14:32:20.942Z)
Latitude
4.8986°
Longitude
169.47338°
Altitude
950.049 km
Speed
7.447 km/s
True Right ascension
19h 41m 34s
True Declination
4° 52' 13"
Sunlit
Object was in full shadow at epoch
Visualization orbit readout
Latitude
Unknown
Longitude
Unknown
Altitude
Unknown
Speed
Unknown
Apparent Right ascension
Unknown
Apparent Declination
Unknown
Sunlit
N/A
Visualization observer readout
Local Sidereal Time
04:18:44
Azimuth
Unknown
Elevation
Unknown
Doppler factor
Unknown
Orbital elements
Apogee altitude
1,232.242 km
Perigee altitude
942.996 km
Semi-major axis
7,465.756 km
Eccentricity
0.01937
Inclination
83.0936°
RAAN
115.9847°
Arg. of periapsis
165.3611°
True anomaly
9.61939°
Mean anomaly
9.2537°
Eccentric anomaly
9.43566°
Mean motion
3.36459 °/min
Orbital period
107 mins
BSTAR
0.00063469
Loading maneuver chart data...
Computing Atmospheric mass density...
Loading historical data...
Loading historical data...
Loading historical data...
Loading historical data...
Loading historical data...
Loading historical data...
Loading historical data...

Documentation

Showing up to 5 results
|